Погода в Иногоще

Россия / Новгородская область     58°18′20″N   33°30′12″E
темп.,
°C
ветер,
м/с
пор.,
м/с
влажн.,
%
обл.,
%
осадки,
мм/ч
давл.,
гПа
погр.,
м
21 апреля, ср
ср2100:00+3в3996100 0.1 1016627
03:00+3всв3697100 0.8 1013555
06:00+2св3698100 1.9 1009379
09:00+2св2599100 4.0 1006243
12:00+2с1199100 0.9 1004155
15:00+2зюз2499100 1.6 1003244
18:00+3зюз4891100 0.1 1004811
21:00+3юз2790100 0.1 1005475
22 апреля, чт
чт2200:00+2ююз399423 0.0 1005230
03:00+2ююз3109288 0.0 1005234
06:00+3ююз31095100 0.1 1005314
09:00+7ююз478273 0.1 1006497
12:00+11юз476389 0.0 10071183
15:00+14юз474591 0.1 10082379
18:00+13ююз235163 0.0 1007181
21:00+8ююв4137223 0.0 1008316
23 апреля, пт
пт2300:00+7ю3985100 0.1 1007370
03:00+7ююз2694100 0.2 1007270
06:00+4ююв3588100 1.9 1008291
09:00+7ю3675100 1.9 1008696
12:00+7ююз4674100 0.8 10091003
15:00+8ююз586161 1.3 10091508
18:00+9юз475389 0.2 10091931
21:00+4зюз2272100 0.2 101031
24 апреля, сб
сб2400:00+3юз2276100 0.0 101027
03:00+2зюз2380100 0.0 100963
06:00+1зюз2585100 0.0 1008169
09:00+4з2473100 0.0 1007613
12:00+6з345395 0.1 10071561
15:00+8зюз3442100 0.2 10062179
18:00+7зюз444966 0.1 10061372
21:00+2зюз227512 0.1 100619
25 апреля, вс
вс2500:000юз27915 0.0 1006173
03:00−1юз279822 0.0 1006178
06:00+1юз3477100 0.0 1005739
09:00+2юз2375100 0.0 1005588
12:00+3зюз237599 0.1 1006832
15:00+3зюз358578 0.7 1006632
18:00+5зюз4566100 0.3 10061127
21:00+1юз26925 0.4 1007134